{"data":{"norad_id":53178,"epoch":"2026-05-24T19:01:37.218432Z","epoch_age_seconds":89362,"freshness":"FRESH","line1":"1 53178U 22083AY  26144.79279188  .00003691  00000+0  25005-3 0  9990","line2":"2 53178  53.2124 182.4803 0001196  91.2635 268.8494 15.08816151212835","mean_motion":15.08816151,"eccentricity":0.0001196,"inclination_deg":53.2124,"raan_deg":182.4803,"arg_perigee_deg":91.2635,"mean_anomaly_deg":268.8494,"bstar":0.00025005,"rev_number":21283,"period_min":95.439063204991,"perigee_km":538.98889956326,"apogee_km":540.64367398946,"semimajor_km":6917.9532867764,"source":"CELESTRAK","updated_at":"2026-05-25T13:38:17.325578Z"}}